Regional Weather Roundup
Issued by NWS Kansas City/Pleasant Hill, MO

Home | Current Version | Previous Version | Graphics & Text | Print | Product List | Glossary Off
Versions: 1 2 3 4 5 6 7 8 9 10 11 12 13 14 15 16 17 18 19 20 21 22 23 24 25 26 27 28 29 30 31 32 33 34 35 36 37 38 39 40 41 42 43 44 45 46 47 48 49 50

000
ASUS43 KEAX 312210
RWREAX

WEATHER ROUNDUP FOR EASTERN KANSAS AND NORTHWEST MISSOURI
NATIONAL WEATHER SERVICE KANSAS CITY/PLEASANT HILL MO
500 PM CDT MON AUG 31 2015

KSZ040-057-103>105-MOZ028-029-037-043-312300-
...KANSAS CITY METROPOLITAN AREA...

CITY           SKY/WX    TMP DP  RH WIND       PRES   REMARKS
K.C. INTL      SUNNY     90  68  48 SW12      29.94F HX  94
K.C. DOWNTOWN  MOSUNNY   90  70  51 S13       29.93F HX  95
LEES SUMMIT    MOSUNNY   88  67  49 SW10      29.96F HX  91
OLATHE - IXD   SUNNY     87  71  58 S12       29.96F HX  93
OLATHE - OJC   SUNNY     86  71  60 S9        29.95F HX  91
LAWRENCE       MOSUNNY   90  69  50 S15       29.93F HX  94

$$

MOZ001>008-011>017-020>025-030>033-038>040-044>046-053-054-312300-
...NORTHERN AND CENTRAL MISSOURI...

CITY           SKY/WX    TMP DP  RH WIND       PRES   REMARKS
ST. JOSEPH     SUNNY     88  70  55 S8        29.92F HX  93
MOSBY          CLEAR     88  66  48 S6        29.94F HX  90
WARRENSBURG    SUNNY     90  66  45 S10       29.95S HX  92
WHITEMAN AFB   MOSUNNY   92  68  45 SW15      29.95F HX  96
CLINTON        SUNNY     91  70  49 SW10      29.97S HX  97
SEDALIA        SUNNY     92  65  40 S8        29.98F HX  94
WARSAW         NOT AVBL
CHILLICOTHE      N/A     89  70  53 S8        29.95F HX  94
KIRKSVILLE     MOSUNNY   87  70  56 S8        29.97F HX  92

$$

MOZ041-047>049-056>058-063>065-088>090-097-312300-
...EASTERN AND SOUTHERN MISSOURI...

CITY           SKY/WX    TMP DP  RH WIND       PRES   REMARKS
ST. LOUIS INTL PTSUNNY   85  68  56 SE9       30.01S THUNDER
SPIRIT OF STL  CLOUDY    88  73  61 S3        29.98F HX  95
COLUMBIA       SUNNY     89  70  53 SW9       29.98F HX  94
JEFFERSON CITY SUNNY     92  66  42 S6        29.96F HX  94
ROLLA          SUNNY     89  68  49 S13       30.01S HX  93
OSAGE BEACH    SUNNY     91  66  43 S10       30.00S HX  94
SPRINGFIELD    SUNNY     88  67  49 S12       30.01F HX  91
BRANSON        PTSUNNY   81  72  74 S7        30.05F
JOPLIN         SUNNY     89  68  49 SW12      29.99S HX  93
WEST PLAINS    MOSUNNY   87  66  49 S7        30.07S

$$

IAZ060-094-KSZ022-034>040-054-083-096-NEZ052-066-093-312300-
...KANSAS...SOUTHEAST NEBRASKA AND IOWA...

CITY           SKY/WX    TMP DP  RH WIND       PRES   REMARKS
TOPEKA         SUNNY     90  68  48 S12       29.92S HX  94
MANHATTAN      SUNNY     94  61  33 S12       29.89S HX  94
EMPORIA        SUNNY     89  68  49 S16       29.93S HX  93
CHANUTE        SUNNY     88  70  55 S16       29.95F HX  93
WICHITA        SUNNY     94  60  32 S10       29.90F HX  94
OMAHA          MOSUNNY   86  66  51 S13       29.91F
LINCOLN        SUNNY     88  69  53 S12       29.90F HX  92
FALLS CITY     SUNNY     90  68  48 S8        29.91F HX  94
LAMONI         SUNNY     86  71  60 S12       29.95F HX  91
DES MOINES     MOSUNNY   87  70  56 S9        29.92F HX  92

$$




USA.gov is the U.S. government's official web portal to all federal, state and local government web resources and services.